Weather History for KILM - October, 2012

Change the Weather History Date:

Sunday, October 28, 2012

  Actual Average Record
Temperature  
Mean Temperature 61 °F 62 °F  
Max Temperature 64 °F 73 °F 87 °F (1984)
Min Temperature 57 °F 51 °F 29 °F (1962)
Degree Days  
Heating Degree Days 4 5  
Month to date heating degree days 51 76  
Since 1 July heating degree days 51 81  
Cooling Degree Days 0 2  
Month to date cooling degree days 94 93  
Year to date cooling degree days 2169 2010  
Growing Degree Days 12 (Base 50)    
Moisture  
Dew Point 54 °F    
Average Humidity 79    
Maximum Humidity 93    
Minimum Humidity 64    
Precipitation  
Precipitation 0.54 in 0.09 in 1.72 in (1908)
Month to date precipitation 4.39 3.61  
Year to date precipitation 41.43 50.42  
Sea Level Pressure  
Sea Level Pressure 29.47 in    
Wind  
Wind Speed 19 mph (NNW)    
Max Wind Speed 29 mph    
Max Gust Speed 38 mph    
Visibility 10 miles    
Events Rain    
T = Trace of Precipitation, MM = Missing Value Source: NWS Daily Summary

Daily Weather History Graph

Daily Weather History Graph

Search for Another Location

Airport or City:

Trip Planner

Search our weather history database for the weather conditions in past years. The results will help you decide how hot, cold, wet, or windy it might be!

Date:

Astronomy

Oct. 28, 2012 Rise Set
Actual Time 7:28 AM EDT 6:21 PM EDT
Civil Twilight 7:02 AM EDT 6:47 PM EDT
Nautical Twilight 6:33 AM EDT 7:17 PM EDT
Astronomical Twilight 6:03 AM EDT 7:46 PM EDT
Moon 5:38 PM EDT (10/28) 6:20 AM EDT (10/28)
Length of Visible Light 11h 45m
Length of Day
10h 53m
Waxing Gibbous, 99% of the Moon is Illuminated
Oct 28
Waxing Gibbous
Oct 29
Full
Nov 6
Last Quarter
Nov 13
New
Nov 20
First Quarter

Hourly Weather History & Observations

Time (EDT) Temp. Dew Point Humidity Pressure Visibility Wind Dir Wind Speed Gust Speed Precip Events Conditions
12:53 AM 63.0 °F 60.1 °F 90% 29.49 in 10.0 mi North 19.6 mph 28.8 mph 0.03 in Rain Light Rain
1:13 AM 62.6 °F 59.0 °F 88% 29.49 in 10.0 mi North 17.3 mph 26.5 mph 0.01 in Rain Light Rain
1:53 AM 62.1 °F 59.0 °F 90% 29.48 in 10.0 mi North 20.7 mph 29.9 mph 0.01 in Rain Light Rain
2:03 AM 62.6 °F 57.2 °F 82% 29.48 in 8.0 mi North 17.3 mph 28.8 mph 0.02 in Rain Rain
2:10 AM 60.8 °F 57.2 °F 88% 29.48 in 9.0 mi North 17.3 mph 28.8 mph N/A Rain Rain
2:48 AM 60.8 °F 57.2 °F 88% 29.47 in 8.0 mi North 16.1 mph 27.6 mph 0.14 in Rain Rain
2:53 AM 60.1 °F 57.0 °F 90% 29.47 in 8.0 mi North 20.7 mph 31.1 mph 0.15 in Rain Rain
3:17 AM 60.8 °F 57.2 °F 88% 29.46 in 8.0 mi North 20.7 mph 28.8 mph 0.05 in Rain Rain
3:53 AM 60.1 °F 57.0 °F 90% 29.45 in 8.0 mi North 18.4 mph 27.6 mph 0.12 in Rain Rain
4:51 AM 59.0 °F 57.2 °F 94% 29.45 in 9.0 mi NNW 16.1 mph 24.2 mph 0.17 in Rain Rain
4:53 AM 59.0 °F 57.0 °F 93% 29.45 in 9.0 mi NNW 15.0 mph 24.2 mph 0.17 in Rain Rain
5:50 AM 60.8 °F 57.2 °F 88% 29.43 in 10.0 mi North 16.1 mph 27.6 mph 0.09 in Rain Light Rain
5:53 AM 60.1 °F 57.0 °F 90% 29.43 in 10.0 mi North 18.4 mph 27.6 mph 0.09 in Rain Light Rain
6:43 AM 60.8 °F 55.4 °F 82% 29.44 in 10.0 mi NNW 19.6 mph 27.6 mph 0.00 in   Overcast
6:53 AM 60.1 °F 55.9 °F 86% 29.45 in 10.0 mi NNW 18.4 mph 23.0 mph 0.00 in   Overcast
7:53 AM 61.0 °F 55.0 °F 81% 29.47 in 10.0 mi NNW 27.6 mph 36.8 mph N/A   Overcast
8:53 AM 59.0 °F 55.0 °F 87% 29.48 in 10.0 mi NNW 17.3 mph - 0.00 in   Overcast
9:53 AM 59.0 °F 55.0 °F 87% 29.48 in 9.0 mi NNW 17.3 mph 32.2 mph 0.00 in Rain Light Rain
10:53 AM 63.0 °F 54.0 °F 72% 29.47 in 10.0 mi North 21.9 mph 38.0 mph 0.00 in   Overcast
11:04 AM 62.6 °F 53.6 °F 72% 29.47 in 10.0 mi North 17.3 mph 34.5 mph N/A   Overcast
11:43 AM 62.6 °F 53.6 °F 72% 29.48 in 10.0 mi NNW 15.0 mph 24.2 mph N/A   Overcast
11:53 AM 62.1 °F 54.0 °F 75% 29.48 in 10.0 mi NNW 17.3 mph 24.2 mph N/A   Overcast
12:53 PM 62.6 °F 53.6 °F 72% 29.46 in 10.0 mi NNW 21.9 mph 29.9 mph N/A   Overcast
1:53 PM 62.1 °F 53.1 °F 72% 29.45 in 10.0 mi NNW 17.3 mph 31.1 mph N/A   Overcast
2:53 PM 62.1 °F 52.0 °F 70% 29.46 in 10.0 mi North 17.3 mph 34.5 mph N/A   Overcast
3:53 PM 62.1 °F 52.0 °F 70% 29.47 in 10.0 mi NNW 17.3 mph 29.9 mph N/A   Overcast
4:53 PM 62.1 °F 51.1 °F 67% 29.47 in 10.0 mi NW 19.6 mph 24.2 mph N/A   Overcast
5:53 PM 62.1 °F 51.1 °F 67% 29.49 in 10.0 mi NW 17.3 mph - N/A   Overcast
6:53 PM 61.0 °F 50.0 °F 67% 29.50 in 10.0 mi NW 16.1 mph - N/A   Overcast
7:53 PM 61.0 °F 48.9 °F 64% 29.50 in 10.0 mi NW 17.3 mph 24.2 mph N/A   Overcast
8:53 PM 61.0 °F 48.9 °F 64% 29.50 in 10.0 mi NW 24.2 mph 31.1 mph N/A   Overcast
9:53 PM 60.1 °F 50.0 °F 69% 29.51 in 10.0 mi NW 20.7 mph 31.1 mph N/A   Overcast
10:53 PM 59.0 °F 50.0 °F 72% 29.51 in 10.0 mi NW 15.0 mph 28.8 mph N/A   Mostly Cloudy
11:53 PM 57.9 °F 51.1 °F 78% 29.51 in 10.0 mi NW 20.7 mph 26.5 mph N/A   Overcast